Time,TemperatureF,DewpointF,PressureIn,WindDirection,WindDirectionDegrees,WindSpeedMPH,WindSpeedGustMPH,Humidity,HourlyPrecipIn,Conditions,Clouds,dailyrainin,SolarRadiationWatts/m^2,SoftwareType,DateUTC
2013-08-30 00:02:00,59.0,51.0,-100.00,ENE,61,2.0,6.0,75,0.00,,,0.08,0.000000,,2013-08-30 06:02:00,
2013-08-30 00:12:00,59.0,51.0,-100.00,ENE,61,2.0,6.0,75,0.00,,,0.08,0.000000,,2013-08-30 06:12:00,
2013-08-30 00:22:00,59.0,51.0,-100.00,ENE,61,2.0,6.0,75,0.00,,,0.08,0.000000,,2013-08-30 06:22:00,
2013-08-30 00:53:00,58.0,52.0,-100.00,NE,35,2.0,4.0,80,0.00,,,0.08,0.000000,,2013-08-30 06:53:00,
2013-08-30 01:02:00,58.0,52.0,-100.00,NE,35,2.0,4.0,80,0.00,,,0.08,0.000000,,2013-08-30 07:02:00,
2013-08-30 01:12:00,58.0,52.0,-100.00,NE,35,2.0,4.0,80,0.00,,,0.08,0.000000,,2013-08-30 07:12:00,
2013-08-30 01:21:00,58.0,52.0,-100.00,NE,35,2.0,4.0,80,0.00,,,0.08,0.000000,,2013-08-30 07:21:00,
2013-08-30 01:53:00,57.0,52.0,-100.00,NNW,345,0.0,3.0,83,0.00,,,0.08,0.000000,,2013-08-30 07:53:00,
2013-08-30 02:03:00,57.0,52.0,-100.00,NNW,345,0.0,3.0,83,0.00,,,0.08,0.000000,,2013-08-30 08:03:00,
2013-08-30 02:11:00,57.0,52.0,-100.00,NNW,345,0.0,3.0,83,0.00,,,0.08,0.000000,,2013-08-30 08:11:00,
2013-08-30 02:22:00,57.0,52.0,-100.00,NNW,345,0.0,3.0,83,0.00,,,0.08,0.000000,,2013-08-30 08:22:00,
2013-08-30 02:52:00,56.0,52.0,-100.00,NW,316,2.0,4.0,86,0.00,,,0.08,0.000000,,2013-08-30 08:52:00,
2013-08-30 03:01:00,56.0,52.0,-100.00,NW,316,2.0,4.0,86,0.00,,,0.08,0.000000,,2013-08-30 09:01:00,
2013-08-30 03:12:00,56.0,52.0,-100.00,NW,316,2.0,4.0,86,0.00,,,0.08,0.000000,,2013-08-30 09:12:00,
2013-08-30 03:22:00,56.0,52.0,-100.00,NW,316,2.0,4.0,86,0.00,,,0.08,0.000000,,2013-08-30 09:22:00,
2013-08-30 03:53:00,56.0,49.0,-100.00,NE,53,2.0,3.0,77,0.00,,,0.08,0.000000,,2013-08-30 09:53:00,
2013-08-30 04:03:00,56.0,49.0,-100.00,NE,53,2.0,3.0,77,0.00,,,0.08,0.000000,,2013-08-30 10:03:00,
2013-08-30 04:12:00,56.0,49.0,-100.00,NE,53,2.0,3.0,77,0.00,,,0.08,0.000000,,2013-08-30 10:12:00,
2013-08-30 04:23:00,56.0,49.0,-100.00,NE,53,2.0,3.0,77,0.00,,,0.08,0.000000,,2013-08-30 10:23:00,
2013-08-30 04:53:00,55.0,50.0,-100.00,WNW,302,3.0,3.0,82,0.00,,,0.08,0.000000,,2013-08-30 10:53:00,
2013-08-30 05:03:00,55.0,50.0,-100.00,WNW,302,3.0,3.0,82,0.00,,,0.08,0.000000,,2013-08-30 11:03:00,
2013-08-30 05:12:00,55.0,50.0,-100.00,WNW,302,3.0,3.0,82,0.00,,,0.08,0.000000,,2013-08-30 11:12:00,
2013-08-30 05:22:00,55.0,50.0,-100.00,WNW,302,3.0,3.0,82,0.00,,,0.08,0.000000,,2013-08-30 11:22:00,
2013-08-30 05:52:00,53.0,48.0,-100.00,North,349,1.0,3.0,84,0.00,,,0.08,0.000000,,2013-08-30 11:52:00,
2013-08-30 06:01:00,53.0,48.0,-100.00,North,349,1.0,3.0,84,0.00,,,0.08,0.000000,,2013-08-30 12:01:00,
2013-08-30 06:12:00,53.0,48.0,-100.00,North,349,1.0,3.0,84,0.00,,,0.08,0.000000,,2013-08-30 12:12:00,
2013-08-30 06:21:00,53.0,48.0,-100.00,North,349,1.0,3.0,84,0.00,,,0.08,0.000000,,2013-08-30 12:21:00,
2013-08-30 06:52:00,52.0,48.0,-100.00,WNW,294,0.0,4.0,85,0.00,,,0.08,0.000000,,2013-08-30 12:52:00,
2013-08-30 07:02:00,52.0,48.0,-100.00,WNW,294,0.0,4.0,85,0.00,,,0.08,0.000000,,2013-08-30 13:02:00,
2013-08-30 07:11:00,52.0,48.0,-100.00,WNW,294,0.0,4.0,85,0.00,,,0.08,0.000000,,2013-08-30 13:11:00,
2013-08-30 07:21:00,52.0,48.0,-100.00,WNW,294,0.0,4.0,85,0.00,,,0.08,0.000000,,2013-08-30 13:21:00,
2013-08-30 07:52:00,53.0,50.0,-100.00,NW,320,2.0,4.0,88,0.00,,,0.08,1.000000,,2013-08-30 13:52:00,
2013-08-30 08:02:00,53.0,50.0,-100.00,NW,320,2.0,4.0,88,0.00,,,0.08,1.000000,,2013-08-30 14:02:00,
2013-08-30 08:11:00,53.0,50.0,-100.00,NW,320,2.0,4.0,88,0.00,,,0.08,1.000000,,2013-08-30 14:11:00,
2013-08-30 08:21:00,53.0,50.0,-100.00,NW,320,2.0,4.0,88,0.00,,,0.08,1.000000,,2013-08-30 14:21:00,
2013-08-30 08:52:00,55.0,52.0,-100.00,NW,307,2.0,3.0,88,0.00,,,0.08,33.000000,,2013-08-30 14:52:00,
2013-08-30 09:02:00,55.0,52.0,-100.00,NW,307,2.0,3.0,88,0.00,,,0.08,33.000000,,2013-08-30 15:02:00,
2013-08-30 09:11:00,55.0,52.0,-100.00,NW,307,2.0,3.0,88,0.00,,,0.08,33.000000,,2013-08-30 15:11:00,
2013-08-30 09:22:00,55.0,52.0,-100.00,NW,307,2.0,3.0,88,0.00,,,0.08,33.000000,,2013-08-30 15:22:00,
2013-08-30 09:24:00,60.0,52.0,-100.00,NE,43,0.0,3.0,76,0.00,,,0.08,130.000000,,2013-08-30 15:24:00,
2013-08-30 09:54:00,60.0,52.0,-100.00,NE,43,0.0,3.0,76,0.00,,,0.08,130.000000,,2013-08-30 15:54:00,
2013-08-30 10:05:00,60.0,52.0,-100.00,NE,43,0.0,3.0,76,0.00,,,0.08,130.000000,,2013-08-30 16:05:00,
2013-08-30 10:13:00,60.0,52.0,-100.00,NE,43,0.0,3.0,76,0.00,,,0.08,130.000000,,2013-08-30 16:13:00,
2013-08-30 10:53:00,73.0,51.0,-100.00,ESE,112,2.0,3.0,46,0.00,,,0.08,590.000000,,2013-08-30 16:53:00,
2013-08-30 11:03:00,73.0,51.0,-100.00,ESE,112,2.0,3.0,46,0.00,,,0.08,590.000000,,2013-08-30 17:03:00,
2013-08-30 11:13:00,73.0,51.0,-100.00,ESE,112,2.0,3.0,46,0.00,,,0.08,590.000000,,2013-08-30 17:13:00,
2013-08-30 11:23:00,73.0,51.0,-100.00,ESE,112,2.0,3.0,46,0.00,,,0.08,590.000000,,2013-08-30 17:23:00,
2013-08-30 11:53:00,76.0,51.0,-100.00,SE,133,2.0,5.0,42,0.00,,,0.08,777.000000,,2013-08-30 17:53:00,
2013-08-30 12:02:00,76.0,51.0,-100.00,SE,133,2.0,5.0,42,0.00,,,0.08,777.000000,,2013-08-30 18:02:00,
2013-08-30 12:12:00,76.0,51.0,-100.00,SE,133,2.0,5.0,42,0.00,,,0.08,777.000000,,2013-08-30 18:12:00,
2013-08-30 12:21:00,76.0,51.0,-100.00,SE,133,2.0,5.0,42,0.00,,,0.08,777.000000,,2013-08-30 18:21:00,
2013-08-30 12:52:00,76.0,51.0,-100.00,West,270,4.0,7.0,42,0.00,,,0.08,831.000000,,2013-08-30 18:52:00,
2013-08-30 13:01:00,76.0,51.0,-100.00,West,270,4.0,7.0,42,0.00,,,0.08,831.000000,,2013-08-30 19:01:00,
2013-08-30 13:12:00,76.0,51.0,-100.00,West,270,4.0,7.0,42,0.00,,,0.08,831.000000,,2013-08-30 19:12:00,
2013-08-30 13:21:00,76.0,51.0,-100.00,West,270,4.0,7.0,42,0.00,,,0.08,831.000000,,2013-08-30 19:21:00,
2013-08-30 13:53:00,75.0,51.0,-100.00,SE,130,2.0,7.0,43,0.00,,,0.08,613.000000,,2013-08-30 19:53:00,
2013-08-30 14:03:00,75.0,51.0,-100.00,SE,130,2.0,7.0,43,0.00,,,0.08,613.000000,,2013-08-30 20:03:00,
2013-08-30 14:11:00,75.0,51.0,-100.00,SE,130,2.0,7.0,43,0.00,,,0.08,613.000000,,2013-08-30 20:11:00,
2013-08-30 14:22:00,75.0,51.0,-100.00,SE,130,2.0,7.0,43,0.00,,,0.08,613.000000,,2013-08-30 20:22:00,
2013-08-30 14:52:00,77.0,50.0,-100.00,WSW,240,3.0,8.0,39,0.00,,,0.08,808.000000,,2013-08-30 20:52:00,
2013-08-30 15:02:00,77.0,50.0,-100.00,WSW,240,3.0,8.0,39,0.00,,,0.08,808.000000,,2013-08-30 21:02:00,
2013-08-30 15:11:00,77.0,50.0,-100.00,WSW,240,3.0,8.0,39,0.00,,,0.08,808.000000,,2013-08-30 21:11:00,
2013-08-30 15:21:00,77.0,50.0,-100.00,WSW,240,3.0,8.0,39,0.00,,,0.08,808.000000,,2013-08-30 21:21:00,
2013-08-30 15:55:00,80.0,50.0,-100.00,SSW,208,5.0,12.0,35,0.00,,,-99.99,959.000000,,2013-08-30 21:55:00,
2013-08-30 16:04:00,80.0,50.0,-100.00,SSW,208,5.0,12.0,35,0.00,,,-99.99,959.000000,,2013-08-30 22:04:00,
2013-08-30 16:54:00,72.0,46.0,-100.00,ESE,122,12.0,17.0,39,-99.99,,,0.08,520.000000,,2013-08-30 22:54:00,
2013-08-30 17:03:00,72.0,46.0,-100.00,ESE,122,12.0,17.0,39,-99.99,,,0.08,520.000000,,2013-08-30 23:03:00,
2013-08-30 17:12:00,72.0,46.0,-100.00,ESE,122,12.0,17.0,39,-99.99,,,0.08,520.000000,,2013-08-30 23:12:00,
2013-08-30 17:22:00,72.0,46.0,-100.00,ESE,122,12.0,17.0,39,-99.99,,,0.08,520.000000,,2013-08-30 23:22:00,
2013-08-30 17:53:00,74.0,53.0,-100.00,NNE,12,8.0,15.0,48,0.00,,,0.08,391.000000,,2013-08-30 23:53:00,
2013-08-30 18:02:00,74.0,53.0,-100.00,NNE,12,8.0,15.0,48,0.00,,,0.08,391.000000,,2013-08-31 00:02:00,
2013-08-30 18:11:00,74.0,53.0,-100.00,NNE,12,8.0,15.0,48,0.00,,,0.08,391.000000,,2013-08-31 00:11:00,
2013-08-30 18:21:00,74.0,53.0,-100.00,NNE,12,8.0,15.0,48,0.00,,,0.08,391.000000,,2013-08-31 00:21:00,
2013-08-30 18:52:00,68.0,50.0,-100.00,NNE,28,4.0,16.0,52,-99.99,,,0.00,414.000000,,2013-08-31 00:52:00,
2013-08-30 19:01:00,68.0,50.0,-100.00,NNE,28,4.0,16.0,52,-99.99,,,0.00,414.000000,,2013-08-31 01:01:00,
2013-08-30 19:11:00,68.0,50.0,-100.00,NNE,28,4.0,16.0,52,-99.99,,,0.00,414.000000,,2013-08-31 01:11:00,
2013-08-30 19:21:00,68.0,50.0,-100.00,NNE,28,4.0,16.0,52,-99.99,,,0.00,414.000000,,2013-08-31 01:21:00,
2013-08-30 19:52:00,65.0,48.0,-100.00,WSW,256,6.0,10.0,55,0.00,,,0.00,21.000000,,2013-08-31 01:52:00,
2013-08-30 20:02:00,65.0,48.0,-100.00,WSW,256,6.0,10.0,55,0.00,,,0.00,21.000000,,2013-08-31 02:02:00,
2013-08-30 20:12:00,65.0,48.0,-100.00,WSW,256,6.0,10.0,55,0.00,,,0.00,21.000000,,2013-08-31 02:12:00,
2013-08-30 20:22:00,65.0,48.0,-100.00,WSW,256,6.0,10.0,55,0.00,,,0.00,21.000000,,2013-08-31 02:22:00,
2013-08-30 20:52:00,61.0,48.0,-100.00,WNW,298,7.0,25.0,63,0.04,,,0.04,4.000000,,2013-08-31 02:52:00,
2013-08-30 21:02:00,61.0,48.0,-100.00,WNW,298,7.0,25.0,63,0.04,,,0.04,4.000000,,2013-08-31 03:02:00,
2013-08-30 21:12:00,61.0,48.0,-100.00,WNW,298,7.0,25.0,63,0.04,,,0.04,4.000000,,2013-08-31 03:12:00,
2013-08-30 21:22:00,61.0,48.0,-100.00,WNW,298,7.0,25.0,63,0.04,,,0.04,4.000000,,2013-08-31 03:22:00,
2013-08-30 21:24:00,62.0,47.0,-100.00,East,86,3.0,20.0,57,0.00,,,0.04,0.000000,,2013-08-31 03:24:00,
2013-08-30 21:54:00,62.0,47.0,-100.00,East,86,3.0,20.0,57,0.00,,,0.04,0.000000,,2013-08-31 03:54:00,
2013-08-30 22:05:00,62.0,47.0,-100.00,East,86,3.0,20.0,57,0.00,,,0.04,0.000000,,2013-08-31 04:05:00,
2013-08-30 22:14:00,62.0,47.0,-100.00,East,86,3.0,20.0,57,0.00,,,0.04,0.000000,,2013-08-31 04:14:00,
2013-08-30 22:54:00,60.0,47.0,-100.00,ENE,62,4.0,7.0,62,0.00,,,0.04,0.000000,,2013-08-31 04:54:00,
2013-08-30 23:04:00,60.0,47.0,-100.00,ENE,62,4.0,7.0,62,0.00,,,0.04,0.000000,,2013-08-31 05:04:00,
2013-08-30 23:13:00,60.0,47.0,-100.00,ENE,62,4.0,7.0,62,0.00,,,0.04,0.000000,,2013-08-31 05:13:00,
2013-08-30 23:23:00,60.0,47.0,-100.00,ENE,62,4.0,7.0,62,0.00,,,0.04,0.000000,,2013-08-31 05:23:00,
2013-08-30 23:52:00,61.0,45.0,-100.00,NNW,346,4.0,8.0,56,0.00,,,0.04,0.000000,,2013-08-31 05:52:00,